Weather History for CWSP - January, 2013

Change the Weather History Date:

Saturday, January 12, 2013

  Actual Average Record
Temperature  
Mean Temperature 36 °F -  
Max Temperature 39 °F - - ()
Min Temperature 33 °F - - ()
Degree Days  
Heating Degree Days 29    
Moisture  
Dew Point 23 °F    
Average Humidity 59    
Maximum Humidity 70    
Minimum Humidity 43    
Precipitation  
Precipitation 0.00 in - - ()
Sea Level Pressure  
Sea Level Pressure 30.37 in    
Wind  
Wind Speed 6 mph ()    
Max Wind Speed 15 mph    
Max Gust Speed -    
T = Trace of Precipitation, MM = Missing Value Source: Averaged Metar Reports

Daily Weather History Graph

Daily Weather History Graph

Search for Another Location

Airport or City:

Trip Planner

Search our weather history database for the weather conditions in past years. The results will help you decide how hot, cold, wet, or windy it might be!

Date:

Astronomy

Jan. 12, 2013 Rise Set
Actual Time 8:03 AM PST 4:45 PM PST
Civil Twilight 7:27 AM PST 5:20 PM PST
Nautical Twilight 6:48 AM PST 5:59 PM PST
Astronomical Twilight 6:11 AM PST 6:37 PM PST
Moon 8:17 AM PST (1/12) 6:31 PM PST (1/12)
Length of Visible Light 9h 52m
Length of Day
8h 41m
New Moon, 2% of the Moon is Illuminated
Jan 12
New Moon
Jan 18
First Quarter
Jan 26
Full
Feb 3
Last Quarter
Feb 9
New

Hourly Weather History & Observations

Time (PST) Temp. Windchill Dew Point Humidity Pressure Visibility Wind Dir Wind Speed Gust Speed Precip Events Conditions
12:00 AM 34.2 °F 30.0 °F 19.2 °F 54% 30.31 in - North 4.6 mph - N/A   Unknown
1:00 AM 34.2 °F 31.2 °F 18.1 °F 52% 30.31 in - North 3.5 mph - N/A   Unknown
2:00 AM 34.2 °F 31.2 °F 17.6 °F 51% 30.32 in - North 3.5 mph - N/A   Unknown
3:00 AM 34.0 °F 31.0 °F 18.7 °F 54% 30.32 in - North 3.5 mph - N/A   Unknown
4:00 AM 34 °F - 21 °F 45% 30.33 in - Calm Calm - -  
4:00 AM 33.8 °F 30.8 °F 20.7 °F 59% 30.33 in - North 3.5 mph - N/A   Unknown
5:00 AM 34.0 °F 31.0 °F 21.6 °F 60% 30.33 in - North 3.5 mph - N/A   Unknown
6:00 AM 33.6 °F 29.4 °F 21.6 °F 61% 30.33 in - North 4.6 mph - N/A   Unknown
7:00 AM 33.4 °F - 22.1 °F 63% 30.34 in - North 2.3 mph - N/A   Unknown
9:00 AM 36.7 °F 32.9 °F 22.6 °F 57% 30.37 in - North 4.6 mph - N/A   Unknown
10:00 AM 39 °F - 24 °F 43% 30.38 in - Calm Calm - -  
10:00 AM 38.7 °F 33.6 °F 24.3 °F 56% 30.38 in - North 6.9 mph - N/A   Unknown
11:00 AM 37.8 °F 30.2 °F 24.4 °F 59% 30.39 in - North 11.5 mph - N/A   Unknown
12:00 PM 37.6 °F 29.6 °F 23.0 °F 56% 30.38 in - North 12.7 mph - N/A   Unknown
1:00 PM 37.9 °F 29.6 °F 25.0 °F 60% 30.38 in - North 13.8 mph - N/A   Unknown
2:00 PM 38.3 °F 29.7 °F 24.8 °F 58% 30.38 in - North 15.0 mph - N/A   Unknown
3:00 PM 38.5 °F 30.3 °F 25.7 °F 60% 30.38 in - North 13.8 mph - N/A   Unknown
4:00 PM 38 °F - 26 °F 51% 30.39 in - Calm Calm - -  
4:00 PM 38.1 °F 30.2 °F 26.4 °F 63% 30.39 in - North 12.7 mph - N/A   Unknown
5:00 PM 36.0 °F 29.0 °F 25.0 °F 64% 30.38 in - North 9.2 mph - N/A   Unknown
6:00 PM 34.5 °F 28.6 °F 24.8 °F 68% 30.40 in - North 6.9 mph - N/A   Unknown
7:00 PM 34.0 °F 28.0 °F 25.2 °F 70% 30.41 in - North 6.9 mph - N/A   Unknown
8:00 PM 33.8 °F 28.6 °F 25.0 °F 70% 30.40 in - North 5.8 mph - N/A   Unknown
9:00 PM 34.3 °F 30.2 °F 24.6 °F 68% 30.41 in - North 4.6 mph - N/A   Unknown
10:00 PM 35 °F - 24 °F 53% 30.43 in - Calm Calm - -  
10:00 PM 34.9 °F 28.3 °F 24.3 °F 65% 30.43 in - North 8.1 mph - N/A   Unknown
11:00 PM 34.7 °F 26.4 °F 24.8 °F 67% 30.43 in - North 11.5 mph - N/A   Unknown